Date String (YYYY-MM-DD hh:mm:ss) UTC,Instrument flags,absolute air pressure of the measurement (hPa),sample flow rate (lpm),inlet stack bypass flow (lpm),air temperature of the measurement (°C),ambient temperature measured by the external sensor (°C),aerosol sample conditioner tube jacket temperature (°C),OPC LED temperature (°C),internal box temperature (°C),relative humidity of the measurement (%),span deviation,mass concentration of particles derived from Lorenz-Mie calculation of OPC scattering (μg/m³),mass concentration of particles derived from Lorenz-Mie calculation of OPC scattering (μg/m³),mass concentration of particles derived from Lorenz-Mie calculation of OPC scattering (μg/m³)
DateTimeUTC,F1_M11,P_M11,Q1_M11,Q2_M11,T1_M11,T2_M11,T3_M11,T4_M11,T5_M11,U1_M11,ZSPAN_M11,X0_M11,X2_M11,X1_M11
2023-07-04 12:00:00,SystemResetWarning,0830.5,4.99,000.00,029.6,028.4,000.0,038.1,031.2,19.9,0000.0,0005.67,0003.58,0003.35
2023-07-04 12:01:00,SystemResetWarning,0830.6,4.99,000.00,029.6,028.5,000.0,038.1,031.3,19.6,0000.0,0005.71,0003.59,0003.35
2023-07-04 12:02:00,SystemResetWarning,0830.7,5.00,000.00,029.7,028.5,000.0,038.1,031.3,19.1,0000.0,0005.31,0003.56,0003.34
2023-07-04 12:03:00,SystemResetWarning,0830.7,5.01,000.00,029.7,028.6,000.0,038.2,031.3,19.0,0000.0,0005.38,0003.57,0003.33
2023-07-04 12:04:00,SystemResetWarning,0830.7,5.01,000.00,029.7,028.6,000.0,038.2,031.3,19.0,0000.0,0005.36,0003.58,0003.34
2023-07-04 12:05:00,SystemResetWarning,0830.7,5.01,000.00,029.7,028.6,000.0,038.2,031.4,18.9,0000.0,0005.45,0003.58,0003.33
2023-07-04 12:06:00,SystemResetWarning,0830.7,4.99,000.00,029.8,028.6,000.0,038.2,031.4,18.9,0000.0,0005.46,0003.59,0003.34
2023-07-04 12:07:00,SystemResetWarning,0830.6,4.99,000.00,029.8,026.9,000.0,038.1,031.3,19.0,0000.0,0005.44,0003.60,0003.35
2023-07-04 12:08:00,SystemResetWarning,0830.6,5.01,000.00,029.7,025.4,000.0,038.0,031.0,19.2,0000.0,0005.42,0003.62,0003.36
2023-07-04 12:09:00,SystemResetWarning,0830.6,5.01,000.00,029.6,025.3,000.0,038.0,030.7,19.4,0000.0,0005.68,0003.68,0003.37
2023-07-04 12:10:00,SystemResetWarning,0830.5,5.00,000.00,029.5,025.6,000.0,038.0,030.6,19.7,0000.0,0006.00,0003.74,0003.39
2023-07-04 12:11:00,SystemResetWarning,0830.7,5.00,000.00,029.4,026.0,000.0,038.0,030.7,19.9,0000.0,0006.45,0003.77,0003.42
2023-07-04 12:12:00,SystemResetWarning,0830.5,5.00,000.00,029.4,026.4,000.0,038.0,030.7,19.9,0000.0,0007.37,0003.82,0003.48
2023-07-04 12:13:00,SystemResetWarning,0830.6,4.99,000.00,029.4,026.8,000.0,038.0,030.8,19.9,0000.0,0007.54,0003.90,0003.53
2023-07-04 12:14:00,SystemResetWarning,0830.6,4.99,000.00,029.4,027.1,000.0,038.0,030.9,19.9,0000.0,0007.60,0004.00,0003.58
2023-07-04 12:15:00,SystemResetWarning,0830.7,4.99,000.00,029.4,027.3,000.0,038.0,030.9,19.8,0000.0,0007.79,0004.09,0003.64
2023-07-04 12:16:00,SystemResetWarning,0830.7,5.00,000.00,029.4,027.5,000.0,038.0,031.0,19.7,0000.0,0008.11,0004.16,0003.70
2023-07-04 12:17:00,SystemResetWarning,0830.8,5.01,000.00,029.4,027.7,000.0,038.0,031.0,19.6,0000.0,0008.17,0004.21,0003.74
2023-07-04 12:18:00,SystemResetWarning,0830.8,5.01,000.00,029.4,027.9,000.0,038.0,031.0,19.5,0000.0,0008.31,0004.30,0003.80
2023-07-04 12:19:00,SystemResetWarning,0830.8,5.01,000.00,029.5,028.0,000.0,038.0,031.1,19.6,0000.0,0008.45,0004.37,0003.85
2023-07-04 12:20:00,SystemResetWarning,0830.9,5.00,000.00,029.5,028.1,000.0,038.0,031.1,19.7,0000.0,0009.52,0004.43,0003.90
2023-07-04 12:21:00,SystemResetWarning,0830.9,5.00,000.00,029.5,028.2,000.0,038.0,031.1,19.9,0000.0,0009.68,0004.49,0003.94
2023-07-04 12:22:00,SystemResetWarning,0830.9,5.00,000.00,029.5,028.3,000.0,038.1,031.2,20.1,0000.0,0009.80,0004.53,0003.97
2023-07-04 12:23:00,SystemResetWarning,0831.0,5.00,000.00,029.6,028.3,000.0,038.1,031.2,20.1,0000.0,0009.42,0004.59,0003.99
2023-07-04 12:24:00,SystemResetWarning,0831.1,5.00,000.00,029.6,028.4,000.0,038.1,031.2,20.1,0000.0,0009.47,0004.62,0004.00
2023-07-04 12:25:00,SystemResetWarning,0831.2,5.00,000.00,029.6,028.5,000.0,038.1,031.2,19.7,0000.0,0009.92,0004.64,0004.02
2023-07-04 12:26:00,SystemResetWarning,0831.1,5.00,000.00,029.6,028.5,000.0,038.1,031.3,19.4,0000.0,0010.01,0004.65,0004.02
2023-07-04 12:27:00,SystemResetWarning,0831.1,5.00,000.00,029.7,028.6,000.0,038.2,031.3,19.4,0000.0,0009.82,0004.66,0004.02
2023-07-04 12:28:00,SystemResetWarning,0831.1,5.00,000.00,029.7,028.6,000.0,038.2,031.3,19.1,0000.0,0009.82,0004.68,0004.03
2023-07-04 12:29:00,SystemResetWarning,0831.1,5.00,000.00,029.7,028.6,000.0,038.2,031.3,18.9,0000.0,0010.01,0004.72,0004.03
2023-07-04 12:30:00,SystemResetWarning,0831.2,5.00,000.00,029.7,028.7,000.0,038.2,031.4,18.9,0000.0,0010.21,0004.77,0004.03
2023-07-04 12:31:00,SystemResetWarning,0831.2,4.99,000.00,029.8,028.1,000.0,038.2,031.4,18.9,0000.0,0009.69,0004.80,0004.03
2023-07-04 12:32:00,SystemResetWarning,0831.2,4.99,000.00,029.7,026.1,000.0,038.1,031.1,18.9,0000.0,0009.66,0004.81,0004.02
2023-07-04 12:33:00,SystemResetWarning,0831.2,5.01,000.00,029.6,025.4,000.0,038.0,030.9,18.9,0000.0,0009.87,0004.81,0004.02
2023-07-04 12:34:00,SystemResetWarning,0831.2,5.01,000.00,029.5,025.6,000.0,038.0,030.7,19.1,0000.0,0010.27,0004.81,0004.01
2023-07-04 12:35:00,SystemResetWarning,0831.2,5.00,000.00,029.4,026.0,000.0,038.0,030.7,19.4,0000.0,0011.12,0004.84,0004.01
2023-07-04 12:36:00,SystemResetWarning,0831.3,5.00,000.00,029.4,026.3,000.0,038.0,030.7,19.5,0000.0,0011.22,0004.83,0004.00
2023-07-04 12:37:00,SystemResetWarning,0831.3,5.00,000.00,029.4,026.7,000.0,038.0,030.8,19.7,0000.0,0012.13,0004.81,0004.00
2023-07-04 12:38:00,SystemResetWarning,0831.3,5.00,000.00,029.4,027.0,000.0,038.0,030.9,20.7,0000.0,0012.79,0004.84,0004.00
2023-07-04 12:39:00,SystemResetWarning,0831.3,5.00,000.00,029.4,027.3,000.0,038.0,030.9,21.8,0000.0,0013.19,0004.82,0003.99
2023-07-04 12:40:00,SystemResetWarning,0831.3,5.01,000.00,029.4,027.5,000.0,038.0,030.9,21.6,0000.0,0013.78,0004.79,0003.98
2023-07-04 12:41:00,SystemResetWarning,0831.3,5.00,000.00,029.4,027.7,000.0,038.0,031.0,20.5,0000.0,0013.59,0004.71,0003.98
2023-07-04 12:42:00,SystemResetWarning,0831.3,5.00,000.00,029.4,027.8,000.0,038.0,031.0,19.8,0000.0,0013.60,0004.71,0003.97
2023-07-04 12:43:00,SystemResetWarning,0831.3,5.00,000.00,029.4,027.9,000.0,038.0,031.0,18.9,0000.0,0013.22,0004.65,0003.96
2023-07-04 12:44:00,SystemResetWarning,0831.3,4.99,000.00,029.5,028.1,000.0,038.0,031.1,18.6,0000.0,0012.80,0004.61,0003.96
2023-07-04 12:45:00,SystemResetWarning,0831.4,4.99,000.00,029.5,028.2,000.0,038.0,031.1,18.5,0000.0,0012.33,0004.58,0003.95
2023-07-04 12:46:00,SystemResetWarning,0831.4,4.99,000.00,029.5,028.2,000.0,038.1,031.1,19.1,0000.0,0011.14,0004.50,0003.93
2023-07-04 12:47:00,SystemResetWarning,0831.5,4.99,000.00,029.6,028.3,000.0,038.1,031.2,18.9,0000.0,0010.71,0004.44,0003.92
2023-07-04 12:48:00,SystemResetWarning,0831.5,5.02,000.00,029.6,028.4,000.0,038.1,031.2,19.2,0000.0,0009.64,0004.43,0003.91
2023-07-04 12:49:00,SystemResetWarning,0831.6,5.01,000.00,029.6,028.4,000.0,038.1,031.2,19.4,0000.0,0009.23,0004.38,0003.90
2023-07-04 12:50:00,SystemResetWarning,0831.6,5.00,000.00,029.6,028.5,000.0,038.1,031.3,19.7,0000.0,0008.83,0004.36,0003.90
2023-07-04 12:51:00,SystemResetWarning,0831.6,4.98,000.00,029.7,028.5,000.0,038.1,031.3,19.6,0000.0,0008.16,0004.33,0003.90
2023-07-04 12:52:00,SystemResetWarning,0831.6,5.00,000.00,029.7,028.5,000.0,038.2,031.3,18.9,0000.0,0007.78,0004.33,0003.90
2023-07-04 12:53:00,SystemResetWarning,0831.6,5.01,000.00,029.7,028.6,000.0,038.2,031.3,18.5,0000.0,0007.70,0004.31,0003.89
2023-07-04 12:54:00,SystemResetWarning,0831.6,5.01,000.00,029.7,028.6,000.0,038.2,031.3,18.8,0000.0,0007.85,0004.32,0003.91
2023-07-04 12:55:00,SystemResetWarning,0831.7,5.00,000.00,029.8,028.6,000.0,038.2,031.3,19.4,0000.0,0008.23,0004.36,0003.92
2023-07-04 12:56:00,SystemResetWarning,0831.7,4.99,000.00,029.8,028.7,000.0,038.3,031.4,19.5,0000.0,0008.23,0004.32,0003.91
2023-07-04 12:57:00,SystemResetWarning,0831.7,4.99,000.00,029.8,028.3,000.0,038.2,031.4,19.3,0000.0,0008.35,0004.35,0003.92
2023-07-04 12:58:00,SystemResetWarning,0831.7,5.00,000.00,029.8,026.3,000.0,038.1,031.2,19.2,0000.0,0008.57,0004.40,0003.93
2023-07-04 12:59:00,SystemResetWarning,0831.7,5.01,000.00,029.7,025.5,000.0,038.0,031.0,19.0,0000.0,0008.91,0004.40,0003.94
